Location: Blackfoot
(53.5367°N, 112.7800°W)
Time: 09:40:09
(UTC-06:00)

Amateur Radio Satellites - All Passes

Search period start: 27 March 2015 09:10
Search period end: 28 March 2015 09:10
Location: Blackfoot, 53.5367°N, 112.7800°W

Satellite Date Start Highest point End Downlink Frequencies (MHz)
Time Altitude Azimuth
DOVE 4 27 Mar 09:11:18 09:12:37 11° 84° (E) 09:14:08 437.250
HO-68 27 Mar 09:15:54 09:21:36 25° 88° (E) 09:27:27 435.675
Cubesat XI-IV 27 Mar 09:21:04 09:25:54 35° 299° (WNW) 09:30:40 437.490
CUTE-I 27 Mar 09:21:38 09:26:27 35° 299° (WNW) 09:31:13 437.470
SEEDS 27 Mar 09:25:47 09:28:30 17° 87° (E) 09:31:19 437.485
AAUSAT CUBESAT 2 27 Mar 09:27:33 09:29:23 13° 84° (E) 09:31:24 437.432
ANTELSAT 27 Mar 09:34:57 09:37:37 17° 56° (NE) 09:40:24 437.575/2403.000
CUSAT 1 27 Mar 09:38:17 09:41:38 33° 262° (W) 09:45:53 437.405
BRITE-PL 27 Mar 09:47:36 09:51:37 46° 99° (E) 09:55:43 437.365/2234.400
COMPASS 1 27 Mar 09:51:32 09:54:58 23° 91° (E) 09:58:26 437.405
GONETS M04 27 Mar 09:56:31 10:03:00 23° 285° (WNW) 10:09:13
QB50P1 27 Mar 10:02:46 10:05:24 17° 56° (ENE) 10:08:08 145.935-145.965
JAS-2 27 Mar 10:05:27 10:06:57 11° 335° (NNW) 10:08:13 435.910
DUCHIFAT 1 27 Mar 10:05:58 10:08:41 17° 57° (ENE) 10:11:29 145.980
DANDE 27 Mar 10:13:18 10:15:58 20° 264° (W) 10:19:04 436.750
CANX-2 27 Mar 10:13:19 10:17:35 54° 100° (E) 10:21:50 2200.000
QB50P2 27 Mar 10:16:04 10:19:13 21° 60° (ENE) 10:22:27 145.880/145.840
AO-7 27 Mar 10:27:09 10:30:58 14° 344° (NNW) 10:34:39 29.400- 29.500
CUTE 1.7 + AOD 2 27 Mar 10:27:37 10:31:57 67° 103° (ESE) 10:36:15 437.475
PHONESAT 2.4 27 Mar 10:27:56 10:28:28 10° 178° (S) 10:29:00 2401.200-2431.200
UNISAT 6 27 Mar 10:29:25 10:33:28 43° 67° (ENE) 10:37:36 437.425
UKube-1 27 Mar 10:39:46 10:41:49 13° 85° (E) 10:44:03 .
TIGRISAT 27 Mar 10:40:44 10:44:52 52° 69° (ENE) 10:49:06 435.000
CINEMA 3 27 Mar 10:44:13 10:48:21 45° 98° (E) 10:52:39 145.822/145.860
POPSAT HIP 1 27 Mar 10:44:36 10:48:26 34° 65° (ENE) 10:52:17 437.405
DX 1 27 Mar 10:46:16 10:48:56 16° 88° (E) 10:51:44 434.975-435.025
GOMX 1 27 Mar 10:46:45 10:50:56 74° 287° (WNW) 10:55:14 467.674
DOVE 4 27 Mar 10:46:57 10:51:11 81° 104° (ESE) 10:55:34 437.250
NANOSAT C BR1 27 Mar 10:56:02 11:00:02 43° 67° (ENE) 11:04:03 145.865
DELFI C3 27 Mar 10:56:05 10:59:51 33° 95° (E) 11:03:37 145.870
BUGSAT 1 27 Mar 10:56:52 11:00:37 34° 65° (ENE) 11:04:22 437.445
POLYITAN 1 27 Mar 10:58:00 11:02:02 45° 68° (ENE) 11:06:05 437.675
SEEDS 27 Mar 11:00:33 11:04:51 72° 287° (WNW) 11:09:07 437.485
AAUSAT CUBESAT 2 27 Mar 11:01:29 11:05:46 89° 104° (ESE) 11:10:00 437.432
HUMSAT D 27 Mar 11:01:32 11:04:08 16° 87° (E) 11:06:54 437.325/437.525
HO-68 27 Mar 11:03:02 11:10:18 86° 290° (WNW) 11:17:31 435.675
BEESAT 3 27 Mar 11:07:44 11:09:33 13° 113° (ESE) 11:11:32 437.485
Oscar 11 27 Mar 11:08:46 11:13:04 55° 100° (E) 11:17:23 145.826/435.025
ANTELSAT 27 Mar 11:09:36 11:13:53 85° 255° (WSW) 11:18:16 437.575/2403.000
CUBEBUG 2 27 Mar 11:12:15 11:16:28 48° 99° (E) 11:20:49 437.445
UWE-3 27 Mar 11:12:21 11:16:28 41° 98° (E) 11:20:42 435.000/436.395/437.385
FUNcube-1 27 Mar 11:14:31 11:18:31 36° 96° (E) 11:22:36 145.935
VELOX 1 27 Mar 11:16:36 11:19:09 15° 86° (E) 11:21:51 145.980
AISAT 27 Mar 11:20:00 11:22:50 17° 88° (E) 11:25:46 437.250
ZACube-1 27 Mar 11:26:22 11:30:33 46° 99° (E) 11:34:49 437.345
BRITE-PL 27 Mar 11:26:37 11:30:02 24° 298° (WNW) 11:33:25 437.365/2234.400
COMPASS 1 27 Mar 11:26:48 11:30:56 49° 291° (WNW) 11:35:02 437.405
QB50P1 27 Mar 11:36:33 11:40:47 82° 255° (WSW) 11:45:02 145.935-145.965
DUCHIFAT 1 27 Mar 11:39:50 11:44:03 78° 256° (WSW) 11:48:17 145.980
ESTCUBE 1 27 Mar 11:41:35 11:44:13 15° 86° (E) 11:46:59 437.505/2401.250
CANX-2 27 Mar 11:49:47 11:53:15 24° 299° (WNW) 11:56:40 2200.000
QB50P2 27 Mar 11:50:37 11:54:49 60° 258° (WSW) 11:59:01 145.880/145.840
BEESAT 2 27 Mar 12:03:28 12:07:10 32° 122° (ESE) 12:10:56 435.950
CUTE 1.7 + AOD 2 27 Mar 12:04:19 12:07:29 20° 301° (WNW) 12:10:35 437.475
UNISAT 6 27 Mar 12:06:47 12:10:28 27° 267° (W) 12:14:09 437.425
O/OREOS (USA 219) 27 Mar 12:13:41 12:15:35 12° 25° (NNE) 12:17:35 437.305
50 SAT 27 Mar 12:14:09 12:18:05 50° 99° (E) 12:22:02 437.505
UKube-1 27 Mar 12:14:20 12:18:43 90° 217° (SW) 12:23:02 .
AO-7 27 Mar 12:16:49 12:20:18 13° 13° (NNE) 12:23:53 29.400- 29.500
TIGRISAT 27 Mar 12:18:36 12:21:58 22° 269° (W) 12:25:20 435.000
POPSAT HIP 1 27 Mar 12:20:30 12:24:21 33° 264° (W) 12:28:11 437.405
DX 1 27 Mar 12:21:25 12:25:47 76° 288° (WNW) 12:30:06 434.975-435.025
CINEMA 3 27 Mar 12:21:48 12:25:28 27° 297° (WNW) 12:29:10 145.822/145.860
DOVE 4 27 Mar 12:25:50 12:28:32 16° 302° (WNW) 12:31:11 437.250
GOMX 1 27 Mar 12:26:39 12:28:29 12° 306° (NW) 12:30:12 467.674
DELFI C3 27 Mar 12:31:19 12:35:02 32° 295° (WNW) 12:38:42 145.870
BUGSAT 1 27 Mar 12:32:21 12:36:08 32° 264° (W) 12:39:53 437.445
NANOSAT C BR1 27 Mar 12:32:29 12:36:05 26° 267° (W) 12:39:38 145.865
POLYITAN 1 27 Mar 12:34:40 12:38:11 25° 268° (W) 12:41:40 437.675
HUMSAT D 27 Mar 12:36:14 12:40:27 73° 287° (WNW) 12:44:42 437.325/437.525
SEEDS 27 Mar 12:37:57 12:39:59 13° 306° (NW) 12:41:52 437.485
AAUSAT CUBESAT 2 27 Mar 12:38:16 12:40:52 16° 304° (WNW) 12:43:20 437.432
BEESAT 3 27 Mar 12:42:50 12:46:58 75° 132° (SE) 12:51:08 437.485
Gurwin Techsat 1B 27 Mar 12:45:25 12:47:27 12° 46° (NE) 12:49:42 435.225
Oscar 11 27 Mar 12:45:29 12:48:59 24° 299° (WNW) 12:52:26 145.826/435.025
Oscar 19 27 Mar 12:45:52 12:50:12 29° 59° (ENE) 12:54:37 437.125/150
UWE-3 27 Mar 12:49:09 12:52:56 30° 296° (WNW) 12:56:44 435.000/436.395/437.385
CUBEBUG 2 27 Mar 12:49:23 12:53:00 26° 298° (WNW) 12:56:39 437.445
ANTELSAT 27 Mar 12:49:39 12:51:30 12° 276° (W) 12:53:12 437.575/2403.000
FUNcube-1 27 Mar 12:50:58 12:54:52 33° 295° (WNW) 12:58:47 145.935
HO-68 27 Mar 12:51:25 12:57:16 27° 312° (NW) 13:02:59 435.675
VELOX 1 27 Mar 12:51:57 12:56:23 81° 287° (WNW) 13:00:47 145.980
AISAT 27 Mar 12:55:35 13:00:01 74° 288° (WNW) 13:04:24 437.250
CUBEBUG 1 27 Mar 12:58:53 13:03:13 63° 101° (ESE) 13:07:31 437.445
YUBILEINY 27 Mar 13:01:27 13:06:48 19° 72° (ENE) 13:12:32 435.215
AIST 2 27 Mar 13:01:32 13:05:34 43° 125° (SE) 13:09:41 435.215
ZACube-1 27 Mar 13:03:06 13:06:46 27° 297° (WNW) 13:10:26 437.345
TISAT 1 27 Mar 13:15:33 13:19:02 25° 93° (E) 13:22:34 437.305
QB50P1 27 Mar 13:15:53 13:17:28 12° 276° (W) 13:18:51 145.935-145.965
ESTCUBE 1 27 Mar 13:17:12 13:21:47 83° 287° (WNW) 13:26:18 437.505/2401.250
SPROUT 27 Mar 13:17:14 13:21:02 31° 94° (E) 13:24:52 437.525
DUCHIFAT 1 27 Mar 13:19:29 13:20:43 11° 277° (W) 13:21:46 145.980
JAS-2 27 Mar 13:27:30 13:29:58 12° 28° (NNE) 13:32:41 435.910
BEESAT 2 27 Mar 13:41:09 13:45:12 50° 322° (NW) 13:49:18 435.950
ITAMSAT 1 27 Mar 13:45:56 13:50:34 34° 61° (ENE) 13:55:17 435.822/435.867
ITUPSAT 1 27 Mar 13:47:19 13:48:53 12° 82° (E) 13:50:41 437.325
50 SAT 27 Mar 13:49:35 13:52:47 22° 298° (WNW) 13:55:55 437.505
UKube-1 27 Mar 13:51:36 13:54:18 16° 305° (NW) 13:56:54 .
O/OREOS (USA 219) 27 Mar 13:52:03 13:56:22 39° 49° (NE) 14:00:39 437.305
DX 1 27 Mar 13:59:04 14:01:22 14° 307° (NW) 14:03:32 434.975-435.025
AO-7 27 Mar 14:03:57 14:10:22 27° 40° (NE) 14:16:56 29.400- 29.500
HUMSAT D 27 Mar 14:13:37 14:15:34 13° 306° (NW) 14:17:24 437.325/437.525
Gurwin Techsat 1B 27 Mar 14:21:17 14:26:22 50° 66° (ENE) 14:31:32 435.225
BEESAT 3 27 Mar 14:21:44 14:25:25 29° 333° (NNW) 14:29:05 437.485
Oscar 19 27 Mar 14:24:18 14:29:20 56° 259° (W) 14:34:25 437.125/150
VELOX 1 27 Mar 14:29:47 14:32:20 15° 306° (NW) 14:34:46 145.980
AISAT 27 Mar 14:33:38 14:35:57 14° 307° (NW) 14:38:07 437.250
SWISSCUBE 27 Mar 14:34:23 14:38:39 31° 94° (E) 14:42:55 437.505
CUBEBUG 1 27 Mar 14:35:56 14:39:15 21° 301° (WNW) 14:42:28 437.445
BEESAT 27 Mar 14:37:46 14:42:01 31° 94° (E) 14:46:17 436.000
AIST 2 27 Mar 14:40:06 14:44:14 42° 326° (NW) 14:48:22 435.215
HO-68 27 Mar 14:41:10 14:42:42 11° 337° (NNW) 14:44:04 435.675
TISAT 1 27 Mar 14:51:02 14:55:03 44° 292° (WNW) 14:59:02 437.305
SPROUT 27 Mar 14:53:14 14:57:13 37° 294° (WNW) 15:01:10 437.525
YUBILEINY 27 Mar 14:53:24 15:02:05 68° 95° (E) 15:10:53 435.215
ESTCUBE 1 27 Mar 14:55:16 14:58:02 16° 306° (NW) 15:00:41 437.505/2401.250
HORYU 2 27 Mar 15:02:15 15:06:06 30° 62° (ENE) 15:10:01 437.375
JAS-2 27 Mar 15:06:38 15:12:42 31° 52° (NE) 15:19:18 435.910
BEESAT 2 27 Mar 15:21:02 15:24:14 20° 345° (NNW) 15:27:24 435.950
KKS-1 27 Mar 15:22:08 15:25:11 18° 88° (E) 15:28:21 437.445
ITUPSAT 1 27 Mar 15:22:58 15:27:49 70° 103° (ESE) 15:32:36 437.325
ITAMSAT 1 27 Mar 15:24:55 15:29:59 48° 261° (W) 15:35:03 435.822/435.867
O/OREOS (USA 219) 27 Mar 15:31:35 15:35:49 37° 250° (WSW) 15:39:59 437.305
AIST 1 27 Mar 15:40:20 15:44:29 41° 71° (ENE) 15:48:35
PCSat 27 Mar 15:42:53 15:47:11 25° 112° (ESE) 15:51:37 145.827
AO-7 27 Mar 15:53:48 16:02:03 72° 64° (ENE) 16:10:20 29.400- 29.500
STARS 27 Mar 15:58:54 16:02:35 26° 93° (E) 16:06:19 437.465
BEESAT 3 27 Mar 16:01:48 16:04:38 17° 356° (N) 16:07:28 437.485
Gurwin Techsat 1B 27 Mar 16:01:49 16:06:36 33° 266° (W) 16:11:22 435.225
SWISSCUBE 27 Mar 16:12:06 16:16:42 45° 294° (WNW) 16:21:15 437.505
BEESAT 27 Mar 16:15:27 16:20:03 45° 294° (WNW) 16:24:36 436.000
AIST 2 27 Mar 16:20:35 16:23:49 20° 349° (N) 16:27:02 435.215
HORYU 2 27 Mar 16:38:25 16:42:39 42° 262° (W) 16:46:55 437.375
JAS-2 27 Mar 16:49:57 16:57:01 85° 255° (WSW) 17:04:50 435.910
YUBILEINY 27 Mar 16:51:30 16:59:40 39° 300° (WNW) 17:07:46 435.215
KKS-1 27 Mar 16:57:55 17:02:21 68° 289° (WNW) 17:06:47 437.445
BEESAT 2 27 Mar 17:00:44 17:03:42 18° 9° (N) 17:06:41 435.950
ITUPSAT 1 27 Mar 17:01:33 17:05:18 23° 303° (WNW) 17:08:58 437.325
AIST 1 27 Mar 17:18:20 17:22:00 26° 271° (W) 17:25:34
PCSat 27 Mar 17:24:44 17:30:10 76° 311° (NW) 17:35:40 145.827
Cubesat XI-IV 27 Mar 17:30:22 17:34:55 29° 58° (ENE) 17:39:31 437.490
CUTE-I 27 Mar 17:30:50 17:35:21 29° 58° (ENE) 17:39:57 437.470
STARS 27 Mar 17:35:03 17:39:17 47° 293° (WNW) 17:43:30 437.465
BEESAT 3 27 Mar 17:40:38 17:43:59 23° 20° (NNE) 17:47:20 437.485
AO-7 27 Mar 17:48:03 17:55:35 35° 266° (W) 18:02:59 29.400- 29.500
SWISSCUBE 27 Mar 17:52:46 17:53:31 10° 314° (NW) 17:54:05 437.505
BEESAT 27 Mar 17:56:06 17:56:52 10° 314° (NW) 17:57:28 436.000
AIST 2 27 Mar 18:00:31 18:03:46 20° 12° (NNE) 18:07:01 435.215
HO-68 27 Mar 18:08:22 18:11:43 14° 32° (NNE) 18:15:16 435.675
MOZHAYETS 4 27 Mar 18:17:43 18:22:22 61° 101° (E) 18:26:59
AUBIESAT-1 27 Mar 18:28:55 18:33:00 27° 98° (E) 18:37:08 437.475
KKS-1 27 Mar 18:36:08 18:38:17 13° 308° (NW) 18:40:17 437.445
JAS-2 27 Mar 18:37:47 18:43:21 23° 279° (W) 18:49:04 435.910
BEESAT 2 27 Mar 18:39:01 18:42:54 36° 32° (NNE) 18:46:47 435.950
M-CUBED/EXP-1 PRIME 27 Mar 18:51:17 18:55:56 44° 104° (ESE) 19:00:35 437.505
YUBILEINY 27 Mar 18:55:47 18:59:56 13° 329° (NNW) 19:03:48 435.215
RS-15 27 Mar 18:58:17 19:05:39 22° 101° (E) 19:13:34 29.354- 29.394
Cubesat XI-IV 27 Mar 19:09:26 19:14:45 60° 258° (WSW) 19:20:06 437.490
PCSat 27 Mar 19:09:47 19:14:27 28° 336° (NNW) 19:19:05 145.827
CUTE-I 27 Mar 19:09:51 19:15:10 60° 258° (WSW) 19:20:31 437.470
GONETS M04 27 Mar 19:13:00 19:19:42 27° 78° (ENE) 19:26:41
BEESAT 3 27 Mar 19:18:34 19:22:43 68° 42° (NE) 19:26:49 437.485
BRITE-PL 27 Mar 19:28:09 19:31:14 19° 59° (ENE) 19:34:18 437.365/2234.400
CANX-2 27 Mar 19:38:58 19:41:18 15° 55° (NE) 19:43:45 2200.000
AIST 2 27 Mar 19:39:10 19:43:20 45° 36° (NE) 19:47:26 435.215
SO-50 27 Mar 19:46:12 19:49:14 18° 114° (ESE) 19:52:28 436.795
HO-68 27 Mar 19:51:11 19:57:40 39° 55° (NE) 20:04:15 435.675
CUTE 1.7 + AOD 2 27 Mar 19:52:40 19:55:27 18° 57° (ENE) 19:58:20 437.475
MOZHAYETS 4 27 Mar 19:55:31 19:59:17 24° 300° (WNW) 20:02:58
STRAND 1 27 Mar 19:58:46 20:03:22 33° 94° (E) 20:07:59 437.568
CUBESAT XI-V 27 Mar 19:59:11 20:03:48 56° 100° (E) 20:08:21 437.345
PRISM 27 Mar 20:02:20 20:06:25 46° 99° (E) 20:10:27 437.425
AUBIESAT-1 27 Mar 20:03:21 20:08:05 57° 297° (WNW) 20:12:49 437.475
BEESAT 2 27 Mar 20:17:10 20:21:13 51° 233° (SW) 20:25:13 435.950
CINEMA 3 27 Mar 20:17:53 20:20:02 14° 56° (NE) 20:22:19 145.822/145.860
DOVE 4 27 Mar 20:22:30 20:25:57 25° 62° (ENE) 20:29:24 437.250
GOMX 1 27 Mar 20:23:51 20:27:50 35° 66° (ENE) 20:31:43 467.674
SEEDS 27 Mar 20:23:56 20:27:27 26° 63° (ENE) 20:31:03 437.485
AAUSAT CUBESAT 2 27 Mar 20:24:18 20:27:25 21° 60° (ENE) 20:30:37 437.432
M-CUBED/EXP-1 PRIME 27 Mar 20:26:18 20:30:44 36° 302° (WNW) 20:35:09 437.505
Oscar 11 27 Mar 20:35:41 20:38:18 16° 56° (NE) 20:41:03 145.826/435.025
UWE-3 27 Mar 20:42:28 20:44:10 12° 53° (NE) 20:46:00 435.000/436.395/437.385
CUBEBUG 2 27 Mar 20:42:49 20:45:00 14° 55° (NE) 20:47:19 437.445
FUNcube-1 27 Mar 20:44:10 20:45:08 11° 52° (NE) 20:46:16 145.935
COMPASS 1 27 Mar 20:48:56 20:52:46 36° 66° (ENE) 20:56:41 437.405
Cubesat XI-IV 27 Mar 20:54:28 20:56:08 11° 280° (W) 20:57:30 437.490
CUTE-I 27 Mar 20:54:52 20:56:32 11° 280° (W) 20:57:54 437.470
ZACube-1 27 Mar 20:55:07 20:57:06 13° 55° (NE) 20:59:14 437.345
PCSat 27 Mar 20:55:39 20:59:35 20° 1° (N) 21:03:31 145.827
BEESAT 3 27 Mar 20:57:11 21:00:27 22° 242° (WSW) 21:03:36 437.485
BRITE-PL 27 Mar 21:04:45 21:09:26 75° 257° (WSW) 21:13:48 437.365/2234.400
RS-15 27 Mar 21:05:19 21:16:05 71° 125° (SE) 21:27:11 29.354- 29.394
GONETS M04 27 Mar 21:06:52 21:15:36 88° 281° (WNW) 21:24:26
CANX-2 27 Mar 21:12:23 21:16:38 86° 77° (ENE) 21:20:57 2200.000
AIST 2 27 Mar 21:17:54 21:21:55 38° 236° (SW) 21:25:50 435.215
SO-50 27 Mar 21:24:26 21:29:09 84° 134° (SE) 21:34:03 436.795
CUTE 1.7 + AOD 2 27 Mar 21:26:39 21:30:54 77° 257° (WSW) 21:35:12 437.475
50 SAT 27 Mar 21:34:38 21:35:58 12° 54° (NE) 21:37:27 437.505
CUBESAT XI-V 27 Mar 21:37:07 21:40:59 26° 299° (WNW) 21:44:44 437.345
STRAND 1 27 Mar 21:37:51 21:42:46 46° 295° (WNW) 21:47:38 437.568
HO-68 27 Mar 21:38:04 21:45:10 63° 257° (WSW) 21:52:20 435.675
PRISM 27 Mar 21:38:12 21:41:43 26° 299° (WNW) 21:45:10 437.425
AUBIESAT-1 27 Mar 21:39:28 21:42:05 15° 316° (NW) 21:44:35 437.475
UKube-1 27 Mar 21:40:11 21:43:50 27° 61° (ENE) 21:47:31 .
DX 1 27 Mar 21:47:34 21:51:26 32° 63° (ENE) 21:55:21 434.975-435.025
DELFI C3 27 Mar 21:49:52 21:53:49 49° 69° (ENE) 21:57:49 145.870
DANDE 27 Mar 21:51:25 21:53:38 20° 96° (E) 21:55:43 436.750
CINEMA 3 27 Mar 21:52:30 21:56:42 87° 79° (E) 22:00:54 145.822/145.860
AAUSAT CUBESAT 2 27 Mar 21:58:35 22:02:43 60° 259° (W) 22:06:54 437.432
SEEDS 27 Mar 21:59:02 22:03:05 45° 262° (W) 22:07:12 437.485
DOVE 4 27 Mar 21:59:25 22:03:36 47° 261° (W) 22:07:40 437.250
HUMSAT D 27 Mar 21:59:32 22:02:56 26° 63° (ENE) 22:06:25 437.325/437.525
GOMX 1 27 Mar 22:02:00 22:06:03 33° 264° (W) 22:09:55 467.674
M-CUBED/EXP-1 PRIME 27 Mar 22:03:54 22:04:30 10° 322° (NW) 22:04:57 437.505
Oscar 11 27 Mar 22:09:37 22:13:57 87° 255° (WSW) 22:18:20 145.826/435.025
UWE-3 27 Mar 22:15:54 22:20:02 73° 73° (ENE) 22:24:13 435.000/436.395/437.385
FUNcube-1 27 Mar 22:16:37 22:20:42 61° 71° (ENE) 22:24:51 145.935
CUBEBUG 2 27 Mar 22:16:59 22:21:09 87° 75° (ENE) 22:25:21 437.445
VELOX 1 27 Mar 22:19:59 22:23:52 31° 63° (ENE) 22:27:48 145.980
AISAT 27 Mar 22:23:42 22:27:41 34° 64° (ENE) 22:31:42 437.250
COMPASS 1 27 Mar 22:24:47 22:28:33 31° 266° (W) 22:32:19 437.405
CUBEBUG 1 27 Mar 22:26:29 22:29:37 20° 58° (ENE) 22:32:49 437.445
ZACube-1 27 Mar 22:28:42 22:32:51 80° 75° (ENE) 22:37:04 437.345
PCSat 27 Mar 22:39:57 22:44:41 29° 26° (NNE) 22:49:26 145.827
SPROUT 27 Mar 22:45:57 22:46:19 10° 50° (NE) 22:46:52 437.525
ESTCUBE 1 27 Mar 22:46:57 22:50:56 31° 63° (ENE) 22:54:58 437.505/2401.250
BRITE-PL 27 Mar 22:47:22 22:48:48 11° 276° (W) 22:49:59 437.365/2234.400
CANX-2 27 Mar 22:50:59 22:53:16 14° 275° (W) 22:55:24 2200.000
CUSAT 1 27 Mar 22:55:52 22:58:23 34° 289° (WNW) 23:00:49 437.405
ANTELSAT 27 Mar 22:56:19 22:58:39 14° 85° (E) 23:01:11 437.575/2403.000
YUBILEINY 27 Mar 22:59:13 23:04:22 17° 37° (NE) 23:09:47 435.215
SO-50 27 Mar 23:05:54 23:10:13 32° 336° (NNW) 23:14:39 436.795
50 SAT 27 Mar 23:06:20 23:10:14 73° 73° (ENE) 23:14:12 437.505
CUTE 1.7 + AOD 2 27 Mar 23:06:23 23:07:41 11° 278° (W) 23:08:48 437.475
GONETS M04 27 Mar 23:06:31 23:13:53 28° 307° (NW) 23:21:09
UKube-1 27 Mar 23:15:36 23:19:48 46° 260° (W) 23:24:02 .
QB50P1 27 Mar 23:17:38 23:18:44 11° 83° (E) 23:20:03 145.935-145.965
RS-15 27 Mar 23:18:12 23:29:02 59° 334° (NNW) 23:40:15 29.354- 29.394
STRAND 1 27 Mar 23:19:14 23:20:54 11° 315° (NW) 23:22:23 437.568
DUCHIFAT 1 27 Mar 23:20:23 23:21:43 11° 84° (E) 23:23:14 145.980
DX 1 27 Mar 23:23:32 23:27:39 38° 262° (W) 23:31:45 434.975-435.025
DELFI C3 27 Mar 23:26:03 23:29:17 22° 269° (W) 23:32:28 145.870
HO-68 27 Mar 23:30:35 23:34:36 15° 280° (W) 23:38:16 435.675
QB50P2 27 Mar 23:30:44 23:33:10 15° 87° (E) 23:35:44 145.880/145.840
CINEMA 3 27 Mar 23:32:40 23:34:39 13° 275° (W) 23:36:28 145.822/145.860
HUMSAT D 27 Mar 23:34:38 23:38:33 43° 262° (W) 23:42:32 437.325/437.525
DANDE 27 Mar 23:34:51 23:36:54 18° 293° (WNW) 23:38:48 436.750
Oscar 11 27 Mar 23:48:49 23:50:54 13° 276° (W) 23:52:49 145.826/435.025
UNISAT 6 27 Mar 23:51:15 23:55:31 40° 97° (E) 23:59:53 437.425
FUNcube-1 27 Mar 23:54:35 23:57:31 18° 272° (W) 00:00:22 145.935
UWE-3 27 Mar 23:54:38 23:57:11 15° 274° (W) 23:59:37 435.000/436.395/437.385
VELOX 1 27 Mar 23:56:08 00:00:22 41° 262° (W) 00:04:35 145.980
CUBEBUG 2 27 Mar 23:56:37 23:58:35 13° 275° (W) 00:00:24 437.445
POPSAT HIP 1 27 Mar 23:59:13 00:02:46 26° 93° (E) 00:06:22 437.405
AISAT 28 Mar 00:00:07 00:04:17 37° 263° (W) 00:08:25 437.250
CUBEBUG 1 28 Mar 00:01:10 00:05:35 71° 257° (WSW) 00:09:59 437.445
TIGRISAT 28 Mar 00:02:18 00:06:42 49° 99° (E) 00:11:10 435.000
ZACube-1 28 Mar 00:07:36 00:09:53 14° 274° (W) 00:12:03 437.345
BUGSAT 1 28 Mar 00:08:18 00:11:32 23° 92° (E) 00:14:48 437.445
NANOSAT C BR1 28 Mar 00:10:26 00:14:15 32° 95° (E) 00:18:06 145.865
SWISSCUBE 28 Mar 00:12:05 00:14:42 15° 51° (NE) 00:17:28 437.505
POLYITAN 1 28 Mar 00:12:58 00:16:52 35° 96° (E) 00:20:48 437.675
TISAT 1 28 Mar 00:13:46 00:17:46 44° 68° (ENE) 00:21:48 437.305
BEESAT 28 Mar 00:15:24 00:18:00 15° 51° (NE) 00:20:44 436.000
SPROUT 28 Mar 00:17:23 00:21:34 53° 70° (ENE) 00:25:47 437.525
ESTCUBE 1 28 Mar 00:23:22 00:27:43 43° 262° (W) 00:32:05 437.505/2401.250
PCSat 28 Mar 00:23:22 00:28:51 85° 49° (NE) 00:34:18 145.827
ISS 28 Mar 00:27:05 00:28:31 13° 142° (SE) 00:30:02 145.825
ANTELSAT 28 Mar 00:31:37 00:36:10 88° 105° (ESE) 00:40:48 437.575/2403.000
50 SAT 28 Mar 00:43:29 00:45:43 14° 273° (W) 00:47:51 437.505
SO-50 28 Mar 00:48:13 00:52:04 23° 0° (N) 00:55:59 436.795
QB50P1 28 Mar 00:51:12 00:55:27 78° 104° (ESE) 00:59:41 145.935-145.965
DUCHIFAT 1 28 Mar 00:54:06 00:58:21 81° 106° (ESE) 01:02:34 145.980
YUBILEINY 28 Mar 00:55:31 01:04:03 50° 66° (ENE) 01:12:34 435.215
ITUPSAT 1 28 Mar 00:59:14 01:03:20 29° 60° (ENE) 01:07:31 437.325
QB50P2 28 Mar 01:05:25 01:09:41 77° 287° (WNW) 01:13:55 145.880/145.840
GONETS M04 28 Mar 01:13:24 01:14:52 10° 339° (NNW) 01:16:05
UNISAT 6 28 Mar 01:28:12 01:32:16 33° 296° (WNW) 01:36:20 437.425
STARS 28 Mar 01:30:26 01:30:30 10° 49° (NE) 01:30:45 437.465
RS-15 28 Mar 01:33:08 01:43:48 48° 7° (N) 01:54:57 29.354- 29.394
POPSAT HIP 1 28 Mar 01:34:49 01:38:51 43° 293° (WNW) 01:42:51 437.405
TIGRISAT 28 Mar 01:39:27 01:43:17 28° 298° (WNW) 01:47:08 435.000
CUBEBUG 1 28 Mar 01:41:47 01:42:52 11° 278° (W) 01:43:43 437.445
BUGSAT 1 28 Mar 01:43:23 01:47:16 45° 292° (WNW) 01:51:07 437.445
NANOSAT C BR1 28 Mar 01:46:18 01:50:10 35° 295° (WNW) 01:53:59 145.865
SWISSCUBE 28 Mar 01:47:02 01:51:50 71° 71° (ENE) 01:56:40 437.505
POLYITAN 1 28 Mar 01:48:58 01:52:47 33° 296° (WNW) 01:56:35 437.675
TISAT 1 28 Mar 01:50:11 01:53:47 26° 267° (W) 01:57:19 437.305
BEESAT 28 Mar 01:50:20 01:55:06 70° 72° (ENE) 01:59:56 436.000
SPROUT 28 Mar 01:54:36 01:58:00 22° 269° (W) 02:01:20 437.525
ISS 28 Mar 02:01:16 02:04:19 39° 161° (SSE) 02:07:23 145.825
PCSat 28 Mar 02:07:35 02:11:43 22° 250° (WSW) 02:15:44 145.827
ANTELSAT 28 Mar 02:09:27 02:12:27 17° 304° (NW) 02:15:22 437.575/2403.000
KKS-1 28 Mar 02:26:10 02:30:13 36° 64° (ENE) 02:34:19 437.445
QB50P1 28 Mar 02:28:03 02:30:53 17° 303° (WNW) 02:33:36 145.935-145.965
Oscar 19 28 Mar 02:29:17 02:33:56 33° 94° (E) 02:38:36 437.125/150
SO-50 28 Mar 02:29:28 02:33:55 33° 24° (NNE) 02:38:24 436.795
DUCHIFAT 1 28 Mar 02:30:59 02:33:42 17° 303° (WNW) 02:36:19 145.980
Gurwin Techsat 1B 28 Mar 02:32:53 02:34:38 12° 80° (E) 02:36:40 435.225
ITUPSAT 1 28 Mar 02:36:20 02:41:03 52° 260° (W) 02:45:47 437.325
QB50P2 28 Mar 02:42:48 02:44:57 14° 306° (NW) 02:47:00 145.880/145.840
YUBILEINY 28 Mar 02:52:35 03:01:05 52° 270° (W) 03:09:26 435.215
STARS 28 Mar 03:01:50 03:06:04 50° 68° (ENE) 03:10:20 437.465
SWISSCUBE 28 Mar 03:26:40 03:30:15 20° 271° (W) 03:33:44 437.505
BEESAT 28 Mar 03:29:56 03:33:31 20° 271° (W) 03:36:59 436.000
ITAMSAT 1 28 Mar 03:31:05 03:35:54 38° 96° (E) 03:40:44 435.822/435.867
ISS 28 Mar 03:37:17 03:40:30 63° 181° (S) 03:43:44 145.825
RS-15 28 Mar 03:46:48 03:58:08 73° 38° (NE) 04:09:59 29.354- 29.394
AO-7 28 Mar 03:49:56 03:53:53 14° 78° (ENE) 03:58:19 29.400- 29.500
AUBIESAT-1 28 Mar 03:50:08 03:52:53 17° 46° (NE) 03:55:50 437.475
MOZHAYETS 4 28 Mar 03:50:18 03:53:41 21° 58° (ENE) 03:57:12
JAS-2 28 Mar 03:54:19 03:58:23 15° 74° (ENE) 04:02:46 435.910
KKS-1 28 Mar 04:02:50 04:06:54 34° 264° (W) 04:10:58 437.445
Oscar 19 28 Mar 04:08:32 04:13:30 47° 294° (WNW) 04:18:26 437.125/150
SO-50 28 Mar 04:10:02 04:15:01 86° 222° (SW) 04:19:59 436.795
Gurwin Techsat 1B 28 Mar 04:10:31 04:15:50 64° 102° (ESE) 04:21:07 435.225
M-CUBED/EXP-1 PRIME 28 Mar 04:12:13 04:15:41 25° 52° (NE) 04:19:24 437.505
O/OREOS (USA 219) 28 Mar 04:13:53 04:15:21 12° 98° (E) 04:17:01 437.305
AIST 1 28 Mar 04:17:43 04:20:41 18° 85° (E) 04:23:45
HORYU 2 28 Mar 04:23:26 04:27:04 24° 92° (E) 04:30:47 437.375
STARS 28 Mar 04:39:13 04:42:49 24° 268° (W) 04:46:23 437.465
YUBILEINY 28 Mar 04:51:58 04:55:54 13° 294° (WNW) 04:59:19 435.215
ITAMSAT 1 28 Mar 05:10:37 05:15:30 42° 296° (WNW) 05:20:20 435.822/435.867
GONETS M04 28 Mar 05:12:33 05:18:58 22° 46° (NE) 05:25:39
ISS 28 Mar 05:13:38 05:16:42 38° 200° (SSW) 05:19:43 145.825
AUBIESAT-1 28 Mar 05:22:53 05:27:02 82° 65° (ENE) 05:31:34 437.475
PRISM 28 Mar 05:25:39 05:27:54 14° 54° (NE) 05:30:15 437.425
MOZHAYETS 4 28 Mar 05:25:52 05:30:30 72° 258° (WSW) 05:35:11
CUBESAT XI-V 28 Mar 05:33:04 05:36:27 20° 57° (ENE) 05:39:55 437.345
JAS-2 28 Mar 05:37:34 05:45:22 59° 98° (E) 05:52:43 435.910
AO-7 28 Mar 05:40:42 05:48:52 58° 102° (ESE) 05:57:03 29.400- 29.500
STRAND 1 28 Mar 05:43:54 05:47:25 19° 53° (NE) 05:51:04 437.568
M-CUBED/EXP-1 PRIME 28 Mar 05:46:12 05:50:15 57° 253° (WSW) 05:54:42 437.505
O/OREOS (USA 219) 28 Mar 05:49:25 05:54:00 72° 117° (ESE) 05:58:37 437.305
Oscar 19 28 Mar 05:49:58 05:51:47 12° 315° (NW) 05:53:25 437.125/150
Gurwin Techsat 1B 28 Mar 05:51:02 05:55:30 27° 302° (WNW) 05:59:53 435.225
SO-50 28 Mar 05:51:28 05:55:00 19° 246° (WSW) 05:58:23 436.795
AIST 1 28 Mar 05:53:32 05:57:56 64° 284° (WNW) 06:02:20
RS-15 28 Mar 05:59:29 06:10:17 50° 243° (WSW) 06:21:25 29.354- 29.394
HORYU 2 28 Mar 05:59:38 06:04:03 52° 292° (WNW) 06:08:26 437.375
ISS 28 Mar 06:51:06 06:52:28 12° 218° (SW) 06:53:47 145.825
ITAMSAT 1 28 Mar 06:52:47 06:53:50 10° 317° (NW) 06:54:41 435.822/435.867
PRISM 28 Mar 06:58:32 07:02:46 82° 74° (ENE) 07:07:02 437.425
AUBIESAT-1 28 Mar 07:00:02 07:02:36 15° 269° (W) 07:05:09 437.475
MOZHAYETS 4 28 Mar 07:07:01 07:08:42 11° 278° (W) 07:10:09
CUBESAT XI-V 28 Mar 07:08:43 07:13:26 76° 255° (WSW) 07:18:11 437.345
GONETS M04 28 Mar 07:09:05 07:17:55 68° 73° (ENE) 07:26:44
Cubesat XI-IV 28 Mar 07:20:15 07:25:06 34° 94° (E) 07:29:57 437.490
CUTE-I 28 Mar 07:20:31 07:25:20 34° 94° (E) 07:30:10 437.470
STRAND 1 28 Mar 07:20:52 07:26:02 87° 68° (ENE) 07:31:14 437.568
JAS-2 28 Mar 07:22:51 07:30:14 45° 300° (WNW) 07:37:14 435.910
O/OREOS (USA 219) 28 Mar 07:30:05 07:33:56 25° 319° (NW) 07:37:44 437.305
AO-7 28 Mar 07:33:48 07:41:39 48° 305° (NW) 07:49:25 29.400- 29.500
AIST 1 28 Mar 07:35:14 07:36:38 11° 307° (NW) 07:37:51
HORYU 2 28 Mar 07:38:36 07:39:49 11° 311° (NW) 07:40:52 437.375
CUSAT 1 28 Mar 07:41:20 07:44:23 25° 68° (ENE) 07:48:14 437.405
RS-15 28 Mar 08:15:01 08:20:04 13° 267° (W) 08:24:16 29.354- 29.394
DANDE 28 Mar 08:21:57 08:25:13 41° 73° (ENE) 08:29:27 436.750
PRISM 28 Mar 08:36:28 08:38:54 14° 273° (W) 08:41:10 437.425
CUBESAT XI-V 28 Mar 08:49:40 08:51:48 12° 278° (W) 08:53:43 437.345
CANX-2 28 Mar 08:53:58 08:54:44 10° 82° (E) 08:55:44 2200.000
HO-68 28 Mar 08:59:23 09:04:21 20° 84° (E) 09:09:32 435.675
STRAND 1 28 Mar 09:02:32 09:06:01 17° 274° (W) 09:09:20 437.568
BRITE-PL 28 Mar 09:03:24 09:06:21 19° 90° (E) 09:09:27 437.365/2234.400
